#timestamp,LO_Frequency,Hit 
1500390015.8,286046996.2,N
1500390035.7,286046995.1,N
1500390055.5,286046996.3,N
1500390075.3,286046996.3,N
1500390095.2,286046995.2,N
1500390115.0,286046993.7,N
1500390115.9,286046993.7,N
1500390135.8,286046993.8,N
1500390155.6,286046993.5,N
1500390175.4,286046996.0,N
1500390195.3,286046998.0,N
1500390215.1,286046995.3,N
1500390235.9,286046995.2,N
1500390255.7,286046995.5,N
1500390275.5,286046995.4,N
1500390295.4,286046996.2,N
1500390315.2,286046996.0,N
1500390335.0,286046995.9,N
1500390336.0,286046995.9,N
1500390355.8,286046993.3,N
1500390375.6,286046996.0,N
1500390395.5,286046995.2,N
1500390415.3,286046993.8,N
1500390435.1,286046993.6,N
1500390455.9,286046996.1,N
1500390475.7,286046993.4,N
1500390495.6,286046993.8,N
1500390515.4,286046994.2,N
1500390535.2,286046993.9,N
1500390555.1,286046993.3,N
1500390556.0,286046993.3,N
1500390575.8,286046996.4,N
1500390595.6,286046993.4,N
1500390615.5,286046993.5,N
1500390635.3,286046993.5,N
1500390655.2,286046993.4,N
1500390675.9,286046995.4,N
1500390695.7,286046997.8,N
1500390715.6,286046997.6,N
1500390735.4,286046995.9,N
1500390755.2,286046995.4,N
1500390775.1,286046995.2,N
1500390776.0,286046995.2,N
1500390795.8,286046994.9,N
1500390815.7,286046997.2,N
1500390835.5,286046995.4,N
1500390855.3,286046998.0,N
1500390875.2,286046997.7,N
1500390895.0,286046997.6,N
1500390895.9,286046997.6,N
1500390915.8,286046998.0,N
1500390965.6,286046998.0,Y
1500390975.5,286046997.7,N
1500390995.4,286046996.9,N
1500391015.2,286046996.5,N
1500391035.1,286046996.9,N
1500391036.0,286046996.9,N
1500391055.8,286046997.7,N
1500391075.6,286046997.1,N
1500391095.5,286046997.5,N
1500391115.3,286046997.1,N
1500391135.2,286046997.8,N
1500391155.9,286046996.7,N
1500391175.7,286046999.5,N
1500391195.6,286046997.1,N
1500391215.4,286046997.3,N
1500391235.2,286046996.8,N
1500391255.1,286046995.4,N
1500391256.0,286046995.4,N
1500391275.8,286046996.7,N
1500391295.7,286046997.0,N
1500391315.5,286046997.8,N
1500391335.3,286046996.5,N
1500391355.2,286046997.5,N
1500391375.0,286046997.3,N
1500391375.9,286046997.3,N
1500391395.8,286046996.9,N
1500391415.6,286046996.5,N
1500391435.4,286046997.0,N
1500391455.3,286046997.1,N
1500391475.1,286046999.1,N
1500391495.8,286046996.6,N
1500391515.7,286046996.8,N
1500391535.5,286046999.2,N
1500391555.4,286046996.9,N
1500391575.2,286046997.0,N
1500391595.0,286046997.4,N
1500391595.9,286046997.4,N
1500391615.8,286046997.0,N
1500391635.6,286046999.5,N
1500391655.5,286046999.1,N
1500391675.3,286046996.9,N
1500391695.1,286046997.6,N
1500391715.9,286046996.7,N
1500391735.7,286046997.3,N
1500391755.6,286046997.6,N
1500391775.4,286046995.2,N
1500391795.2,286046998.0,N
1500391815.1,286046997.6,N
1500391816.0,286046997.6,N
1500391835.8,286046995.3,N
1500391855.7,286046996.6,N
1500391875.5,286046997.1,N
1500391895.8,286046997.5,N
1500391915.7,286046997.9,N
1500391935.5,286046998.0,N
1500391955.4,286046995.0,N
1500391975.2,286046995.0,N
1500391995.0,286046995.2,N
1500391995.9,286046995.2,N
1500392015.8,286046996.1,N
1500392035.6,286046996.3,N
1500392055.5,286046996.0,N
1500392075.3,286046995.9,N
1500392095.1,286046995.6,N
1500392115.9,286046995.8,N
1500392135.7,286046996.4,N
1500392155.6,286046993.7,N
1500392175.4,286046993.3,N
1500392195.2,286046994.1,N
1500392215.1,286046996.1,N
1500392216.0,286046996.1,N
1500392235.8,286046996.2,N
1500392255.7,286046993.4,N
1500392275.5,286046995.6,N
1500392295.3,286046995.9,N
1500392315.2,286046996.3,N
1500392335.0,286046993.5,N
1500392335.9,286046993.5,N
1500392355.7,286046994.0,N
1500392375.6,286046993.6,N
1500392395.4,286046993.3,N
1500392415.3,286046993.9,N
1500392435.1,286046994.0,N
1500392436.0,286046994.0,N
1500392455.8,286046994.0,N
1500392475.7,286046991.7,N
1500392495.5,286046992.1,N
1500392515.4,286046994.6,N
1500392535.2,286046991.7,N
1500392555.0,286046994.4,N
1500392555.9,286046994.4,N
1500392575.8,286046991.7,N
1500392595.6,286046994.4,N
1500392615.4,286046994.7,N
1500392635.3,286046994.2,N
1500392655.1,286046992.7,N
1500392675.9,286046992.6,N
1500392695.7,286046992.9,N
1500392715.5,286046992.9,N
1500392735.4,286046992.6,N
1500392755.2,286046992.4,N
1500392775.0,286046992.5,N
1500392775.9,286046992.5,N
1500392795.8,286046992.4,N
1500392815.6,286046992.6,N
1500392835.5,286046992.6,N
1500392855.3,286046992.0,N
1500392875.1,286046991.9,N
1500392895.9,286046991.8,N
1500392915.7,286046992.2,N
1500392935.6,286046993.1,N
1500392955.4,286046992.7,N
1500392975.2,286046993.0,N
1500392995.1,286046990.7,N
1500392996.0,286046990.7,N
1500393015.8,286046991.0,N
1500393035.6,286046990.3,N
1500393055.5,286046990.5,N
1500393075.3,286046990.2,N
1500393095.2,286046990.3,N
1500393115.9,286046991.0,N
1500393135.7,286046991.2,N
1500393155.6,286046991.2,N
1500393175.4,286046990.8,N
1500393195.2,286046991.2,N
1500393215.1,286046991.4,N
1500393216.0,286046991.4,N
1500393235.8,286046991.4,N
1500393255.7,286046992.6,N
1500393275.5,286046990.8,N
1500393295.3,286046990.4,N
1500393315.2,286046991.8,N
1500393335.0,286046992.0,N
1500393335.9,286046992.0,N
1500393355.8,286046992.7,N
1500393375.6,286046990.2,N
1500393395.4,286046990.3,N
1500393415.3,286046990.6,N
1500393435.1,286046990.7,N
1500393455.8,286046990.7,N
1500393475.7,286046990.6,N
1500393495.5,286046990.6,N
1500393515.4,286046990.2,N
1500393535.2,286046990.3,N
1500393555.0,286046990.8,N
1500393555.9,286046990.8,N
1500393575.8,286046993.2,N
1500393595.6,286046993.0,N
